| time (UTC) | temp C | wind direction | speed KPH | gust KPH | rain 1hr cm | rain 24hr cm | rain mn cm | humidity % | barometer mb |
| 20260504081523 | 11 | 336 | 9.7 | 14.5 | 0.00 | 2.26 | 1.75 | 95 | 1014.2 |
| 20260504081014 | 11 | 337 | 9.7 | 14.5 | 0.00 | 2.31 | 1.75 | 95 | 1014.0 |
| 20260504080533 | 11 | 339 | 8.0 | 14.5 | 0.00 | 2.31 | 1.75 | 94 | 1014.0 |
| 20260504050515 | 13 | 341 | 9.7 | 17.7 | 0.00 | 2.29 | 1.70 | 84 | 1013.1 |
| 20260504050023 | 13 | 342 | 12.9 | 17.7 | 0.00 | 2.29 | 1.70 | 85 | 1012.9 |
| 20260504045513 | 13 | 347 | 11.3 | 17.7 | 0.00 | 2.29 | 1.70 | 88 | 1013.0 |
| 20260504045012 | 13 | 348 | 11.3 | 17.7 | 0.00 | 2.29 | 1.70 | 89 | 1013.1 |
| 20260504044522 | 13 | 348 | 11.3 | 17.7 | 0.00 | 2.29 | 1.70 | 89 | 1013.0 |
| 20260504044012 | 13 | 349 | 11.3 | 17.7 | 0.00 | 2.29 | 1.70 | 90 | 1012.9 |
| 20260504043522 | 13 | 352 | 12.9 | 17.7 | 0.00 | 2.29 | 1.70 | 92 | 1013.0 |
| 20260504043032 | 13 | 348 | 12.9 | 19.3 | 0.00 | 2.29 | 1.70 | 91 | 1013.0 |
| 20260504042523 | 13 | 345 | 11.3 | 20.9 | 0.00 | 2.29 | 1.70 | 91 | 1013.0 |
| 20260504042014 | 13 | 349 | 12.9 | 20.9 | 0.00 | 2.29 | 1.70 | 95 | 1013.0 |
| 20260504041512 | 13 | 349 | 9.7 | 17.7 | 0.00 | 2.29 | 1.70 | 93 | 1013.0 |
| 20260504041012 | 13 | 334 | 9.7 | 17.7 | 0.00 | 2.29 | 1.68 | 84 | 1013.0 |
| 20260504040532 | 14 | 330 | 11.3 | 19.3 | 0.00 | 2.29 | 1.68 | 83 | 1012.8 |
| 20260504040021 | 13 | 335 | 12.9 | 19.3 | 0.00 | 2.29 | 1.68 | 85 | 1012.7 |
| 20260504035512 | 13 | 339 | 11.3 | 19.3 | 0.00 | 2.29 | 1.68 | 91 | 1012.9 |
| 20260504035032 | 14 | 339 | 11.3 | 16.1 | 0.00 | 2.29 | 1.68 | 90 | 1012.7 |
| 20260504034512 | 14 | 342 | 16.1 | 24.1 | 0.00 | 2.29 | 1.68 | 88 | 1012.8 |
| 20260504034011 | 13 | 339 | 12.9 | 24.1 | 0.00 | 2.29 | 1.68 | 92 | 1012.8 |
| 20260504033528 | 14 | 333 | 14.5 | 24.1 | 0.00 | 2.29 | 1.68 | 92 | 1012.9 |
| 20260504033022 | 14 | 326 | 16.1 | 29.0 | 0.00 | 2.29 | 1.68 | 90 | 1013.0 |
| 20260504032527 | 13 | 325 | 17.7 | 29.0 | 0.03 | 2.29 | 1.68 | 96 | 1013.0 |
| 20260504032013 | 14 | 334 | 14.5 | 24.1 | 0.03 | 2.29 | 1.68 | 95 | 1013.0 |
| 20260504031532 | 14 | 332 | 16.1 | 24.1 | 0.03 | 2.29 | 1.68 | 93 | 1012.9 |
| 20260504031012 | 14 | 328 | 17.7 | 25.7 | 0.03 | 2.29 | 1.68 | 96 | 1012.9 |
| 20260504030523 | 14 | 322 | 16.1 | 25.7 | 0.03 | 2.29 | 1.68 | 96 | 1012.8 |
| 20260504030033 | 15 | 321 | 12.9 | 20.9 | 0.03 | 2.29 | 1.68 | 97 | 1013.1 |
| 20260504025513 | 15 | 336 | 11.3 | 17.7 | 0.03 | 2.29 | 1.68 | 94 | 1013.0 |
| 20260504025022 | 15 | 345 | 9.7 | 16.1 | 0.03 | 2.29 | 1.68 | 94 | 1013.0 |
| 20260504024523 | 14 | 346 | 9.7 | 16.1 | 0.03 | 2.29 | 1.68 | 94 | 1012.9 |
| 20260504024022 | 14 | 353 | 9.7 | 17.7 | 0.03 | 2.29 | 1.68 | 94 | 1013.0 |
| 20260504023512 | 14 | 344 | 9.7 | 17.7 | 0.05 | 2.29 | 1.68 | 99 | 1013.0 |
| 20260504023022 | 15 | 335 | 11.3 | 22.5 | 0.05 | 2.29 | 1.68 | 99 | 1013.2 |
| 20260504022512 | 15 | 338 | 12.9 | 22.5 | 0.05 | 2.26 | 1.68 | 94 | 1013.2 |
| 20260504022022 | 15 | 341 | 12.9 | 22.5 | 0.05 | 2.26 | 1.65 | 94 | 1013.4 |
| 20260504021522 | 15 | 343 | 9.7 | 16.1 | 0.05 | 2.26 | 1.65 | 97 | 1013.3 |
| 20260504021013 | 15 | 343 | 9.7 | 16.1 | 0.05 | 2.26 | 1.65 | 100 | 1013.5 |
| 20260504020517 | 15 | 340 | 11.3 | 17.7 | 0.05 | 2.26 | 1.65 | 99 | 1013.6 |
| 20260504020033 | 15 | 341 | 12.9 | 20.9 | 0.05 | 2.26 | 1.65 | 100 | 1013.7 |
| 20260504015512 | 15 | 337 | 12.9 | 20.9 | 0.05 | 2.26 | 1.65 | 98 | 1013.7 |
| 20260504015022 | 15 | 334 | 12.9 | 19.3 | 0.05 | 2.26 | 1.65 | 98 | 1013.9 |
| 20260504014512 | 15 | 2 | 12.9 | 19.3 | 0.05 | 2.26 | 1.65 | 100 | 1013.8 |
| 20260504014022 | 14 | 1 | 11.3 | 20.9 | 0.05 | 2.26 | 1.65 | 100 | 1013.6 |
| 20260504013521 | 15 | 338 | 11.3 | 20.9 | 0.00 | 2.24 | 1.63 | 95 | 1014.0 |
| 20260504013012 | 15 | 334 | 11.3 | 17.7 | 0.00 | 2.24 | 1.63 | 97 | 1014.2 |
| 20260504012522 | 15 | 326 | 14.5 | 25.7 | 0.00 | 2.24 | 1.63 | 94 | 1014.1 |
| 20260504012022 | 15 | 331 | 14.5 | 25.7 | 0.03 | 2.24 | 1.63 | 97 | 1014.1 |
| 20260504011512 | 15 | 342 | 14.5 | 24.1 | 0.03 | 2.24 | 1.63 | 94 | 1014.2 |
| 20260504011021 | 15 | 337 | 16.1 | 30.6 | 0.08 | 2.24 | 1.63 | 94 | 1014.3 |
| 20260504010513 | 14 | 339 | 19.3 | 30.6 | 0.10 | 2.21 | 1.63 | 98 | 1014.3 |
| 20260504010022 | 14 | 345 | 19.3 | 30.6 | 0.10 | 2.21 | 1.63 | 98 | 1014.3 |
| 20260504005511 | 14 | 346 | 16.1 | 27.4 | 0.10 | 2.21 | 1.63 | 100 | 1014.4 |
| 20260504005013 | 15 | 343 | 14.5 | 24.1 | 0.10 | 2.21 | 1.63 | 96 | 1014.4 |
| 20260504004522 | 14 | 340 | 14.5 | 24.1 | 0.10 | 2.21 | 1.63 | 100 | 1014.5 |
| 20260504004023 | 14 | 339 | 14.5 | 24.1 | 0.10 | 2.21 | 1.63 | 100 | 1014.4 |
| 20260504003532 | 14 | 339 | 16.1 | 29.0 | 0.13 | 2.21 | 1.63 | 96 | 1014.5 |
| 20260504003022 | 15 | 344 | 17.7 | 29.0 | 0.15 | 2.21 | 1.63 | 98 | 1014.6 |
| 20260504002522 | 15 | 342 | 16.1 | 29.0 | 0.18 | 2.21 | 1.63 | 97 | 1014.6 |
| 20260504002012 | 15 | 325 | 17.7 | 29.0 | 0.23 | 2.21 | 1.60 | 98 | 1014.6 |
| 20260504001532 | 15 | 337 | 17.7 | 29.0 | 0.23 | 2.18 | 1.60 | 98 | 1014.4 |
| 20260504001022 | 15 | 337 | 11.3 | 20.9 | 0.33 | 2.13 | 1.55 | 97 | 1014.6 |
| 20260504000511 | 14 | 337 | 8.0 | 17.7 | 0.33 | 2.11 | 1.52 | 100 | 1014.4 |
| 20260504000022 | 14 | 340 | 9.7 | 17.7 | 0.36 | 2.11 | 1.52 | 100 | 1014.4 |
| 20260503235522 | 14 | 336 | 12.9 | 29.0 | 0.36 | 2.11 | 1.52 | 100 | 1014.5 |
| 20260503235013 | 14 | 333 | 12.9 | 29.0 | 0.36 | 2.11 | 1.52 | 100 | 1014.4 |
| 20260503234512 | 15 | 329 | 11.3 | 22.5 | 0.36 | 2.11 | 1.52 | 99 | 1014.2 |
| 20260503234013 | 15 | 327 | 9.7 | 16.1 | 0.33 | 2.11 | 1.52 | 99 | 1014.4 |
| 20260503233511 | 15 | 334 | 9.7 | 16.1 | 0.33 | 2.11 | 1.50 | 98 | 1014.5 |
| 20260503233022 | 15 | 345 | 11.3 | 16.1 | 0.28 | 2.06 | 1.45 | 98 | 1014.4 |
| 20260503232521 | 15 | 344 | 11.3 | 17.7 | 0.28 | 2.06 | 1.45 | 97 | 1014.4 |
| 20260503232023 | 15 | 332 | 11.3 | 20.9 | 0.20 | 1.98 | 1.40 | 97 | 1014.6 |
| 20260503231522 | 15 | 319 | 12.9 | 22.5 | 0.18 | 1.96 | 1.35 | 98 | 1014.6 |
| 20260503231012 | 15 | 333 | 11.3 | 22.5 | 0.05 | 1.80 | 1.22 | 98 | 1014.6 |
| 20260503230522 | 15 | 338 | 12.9 | 22.5 | 0.03 | 1.80 | 1.19 | 98 | 1014.6 |
| 20260503230022 | 15 | 340 | 14.5 | 22.5 | 0.30 | 1.78 | 1.17 | 98 | 1014.5 |
| 20260503225511 | 15 | 342 | 16.1 | 24.1 | 0.33 | 1.78 | 1.17 | 97 | 1014.5 |
| 20260503225012 | 15 | 337 | 14.5 | 24.1 | 0.30 | 1.73 | 1.12 | 97 | 1014.5 |
| 20260503224512 | 15 | 337 | 12.9 | 20.9 | 0.30 | 1.70 | 1.12 | 98 | 1014.5 |
| 20260503224012 | 15 | 346 | 12.9 | 25.7 | 0.30 | 1.70 | 1.09 | 98 | 1014.5 |
| 20260503223522 | 14 | 4 | 14.5 | 25.7 | 0.30 | 1.68 | 1.09 | 99 | 1014.5 |
| 20260503223022 | 15 | 11 | 11.3 | 19.3 | 0.28 | 1.68 | 1.07 | 97 | 1014.4 |
| 20260503222512 | 15 | 4 | 11.3 | 17.7 | 0.25 | 1.65 | 1.04 | 98 | 1014.3 |
| 20260503222035 | 14 | 354 | 11.3 | 16.1 | 0.23 | 1.60 | 1.02 | 98 | 1014.3 |
| 20260503221521 | 14 | 358 | 9.7 | 16.1 | 0.23 | 1.60 | 0.99 | 98 | 1014.3 |
| 20260503221012 | 14 | 4 | 12.9 | 19.3 | 0.20 | 1.60 | 0.99 | 98 | 1014.4 |
| 20260503220521 | 14 | 358 | 11.3 | 19.3 | 0.20 | 1.57 | 0.99 | 99 | 1014.2 |
| 20260503220022 | 14 | 353 | 8.0 | 14.5 | 0.10 | 1.47 | 0.86 | 99 | 1014.3 |
| 20260503215522 | 14 | 349 | 11.3 | 20.9 | 0.08 | 1.45 | 0.84 | 98 | 1014.4 |
| 20260503215012 | 14 | 351 | 9.7 | 20.9 | 0.05 | 1.42 | 0.81 | 99 | 1014.3 |
| 20260503214511 | 14 | 344 | 9.7 | 14.5 | 0.05 | 1.42 | 0.79 | 98 | 1014.4 |
| 20260503214016 | 14 | 341 | 11.3 | 20.9 | 0.03 | 1.40 | 0.79 | 99 | 1014.4 |
| 20260503213521 | 14 | 344 | 11.3 | 20.9 | 0.03 | 1.42 | 0.79 | 98 | 1014.3 |
| 20260503213022 | 14 | 350 | 12.9 | 20.9 | 0.03 | 1.45 | 0.79 | 100 | 1014.3 |
| 20260503212511 | 14 | 354 | 11.3 | 20.9 | 0.03 | 1.47 | 0.79 | 100 | 1014.2 |
| 20260503212022 | 13 | 350 | 9.7 | 20.9 | 0.03 | 1.50 | 0.79 | 100 | 1014.1 |
| 20260503211512 | 13 | 348 | 11.3 | 17.7 | 0.03 | 1.57 | 0.79 | 100 | 1014.2 |
| 20260503211021 | 13 | 339 | 8.0 | 17.7 | 0.03 | 1.57 | 0.79 | 100 | 1014.2 |
| 20260503210511 | 14 | 342 | 9.7 | 17.7 | 0.03 | 1.57 | 0.79 | 98 | 1014.1 |
| 20260503210022 | 14 | 351 | 8.0 | 16.1 | 0.03 | 1.57 | 0.79 | 97 | 1014.2 |
| 20260503205511 | 13 | 344 | 8.0 | 16.1 | 0.00 | 1.55 | 0.76 | 100 | 1014.0 |
| 20260503205022 | 13 | 342 | 8.0 | 16.1 | 0.00 | 1.55 | 0.76 | 100 | 1014.0 |
| 20260503204522 | 13 | 344 | 9.7 | 14.5 | 0.00 | 1.55 | 0.76 | 100 | 1014.0 |
| 20260503204012 | 13 | 346 | 9.7 | 12.9 | 0.00 | 1.55 | 0.76 | 100 | 1013.9 |
| 20260503203512 | 13 | 348 | 8.0 | 11.3 | 0.00 | 1.55 | 0.76 | 100 | 1013.9 |
| 20260503203023 | 13 | 348 | 9.7 | 17.7 | 0.00 | 1.55 | 0.76 | 100 | 1013.9 |
| 20260503202512 | 13 | 351 | 8.0 | 17.7 | 0.00 | 1.55 | 0.76 | 100 | 1013.9 |
| 20260503202023 | 13 | 355 | 8.0 | 14.5 | 0.00 | 1.55 | 0.76 | 100 | 1013.7 |
| 20260503201531 | 13 | 346 | 6.4 | 9.7 | 0.03 | 1.55 | 0.76 | 100 | 1013.7 |
| 20260503201011 | 13 | 343 | 4.8 | 9.7 | 0.05 | 1.55 | 0.76 | 100 | 1013.8 |
| 20260503200513 | 13 | 335 | 4.8 | 8.0 | 0.08 | 1.55 | 0.76 | 100 | 1013.8 |
| 20260503200012 | 13 | 332 | 8.0 | 14.5 | 0.10 | 1.55 | 0.76 | 100 | 1013.9 |
| 20260503195511 | 13 | 341 | 8.0 | 14.5 | 0.23 | 1.55 | 0.76 | 100 | 1013.8 |
| 20260503195012 | 13 | 347 | 6.4 | 11.3 | 0.28 | 1.55 | 0.76 | 100 | 1013.8 |
| 20260503194521 | 13 | 345 | 4.8 | 9.7 | 0.28 | 1.55 | 0.76 | 100 | 1013.8 |
| 20260503194013 | 13 | 332 | 6.4 | 11.3 | 0.28 | 1.55 | 0.76 | 100 | 1013.8 |
| 20260503193521 | 13 | 331 | 6.4 | 11.3 | 0.28 | 1.55 | 0.76 | 99 | 1014.0 |
| 20260503193022 | 13 | 329 | 4.8 | 8.0 | 0.28 | 1.55 | 0.76 | 99 | 1014.0 |
| 20260503192512 | 13 | 330 | 4.8 | 9.7 | 0.25 | 1.55 | 0.76 | 100 | 1013.9 |
| 20260503192022 | 13 | 331 | 6.4 | 11.3 | 0.25 | 1.55 | 0.74 | 99 | 1013.9 |
| 20260503191511 | 13 | 324 | 8.0 | 14.5 | 0.28 | 1.52 | 0.74 | 99 | 1013.9 |
| 20260503191022 | 13 | 328 | 9.7 | 14.5 | 0.28 | 1.52 | 0.71 | 99 | 1014.1 |
| 20260503190522 | 13 | 339 | 9.7 | 19.3 | 0.23 | 1.47 | 0.66 | 99 | 1014.2 |
| 20260503190045 | 13 | 342 | 9.7 | 19.3 | 0.20 | 1.45 | 0.66 | 99 | 1014.1 |
| 20260503185512 | 13 | 349 | 9.7 | 14.5 | 0.05 | 1.32 | 0.51 | 99 | 1014.2 |
| 20260503185012 | 13 | 344 | 8.0 | 14.5 | 0.03 | 1.27 | 0.48 | 100 | 1014.3 |
| 20260503184523 | 13 | 345 | 8.0 | 12.9 | 0.03 | 1.27 | 0.48 | 100 | 1014.2 |
| 20260503184021 | 13 | 337 | 4.8 | 9.7 | 0.03 | 1.27 | 0.48 | 100 | 1014.3 |
| 20260503183521 | 13 | 328 | 6.4 | 11.3 | 0.03 | 1.27 | 0.48 | 100 | 1014.3 |
| 20260503183014 | 14 | 336 | 6.4 | 11.3 | 0.03 | 1.27 | 0.48 | 97 | 1014.4 |
| 20260503182521 | 14 | 341 | 6.4 | 11.3 | 0.03 | 1.27 | 0.48 | 97 | 1014.5 |
| 20260503182012 | 14 | 339 | 8.0 | 12.9 | 0.03 | 1.27 | 0.48 | 97 | 1014.5 |
| 20260503181523 | 13 | 337 | 8.0 | 12.9 | 0.03 | 1.27 | 0.46 | 100 | 1014.6 |
| 20260503181022 | 13 | 320 | 8.0 | 14.5 | 0.03 | 1.24 | 0.46 | 100 | 1014.7 |
| 20260503180522 | 13 | 310 | 6.4 | 14.5 | 0.08 | 1.24 | 0.46 | 100 | 1014.6 |
| 20260503180012 | 13 | 319 | 8.0 | 14.5 | 0.10 | 1.24 | 0.46 | 100 | 1014.6 |
| 20260503175512 | 13 | 328 | 9.7 | 17.7 | 0.13 | 1.24 | 0.46 | 100 | 1014.7 |
| 20260503175012 | 14 | 337 | 11.3 | 17.7 | 0.13 | 1.24 | 0.46 | 97 | 1014.7 |
| 20260503174512 | 14 | 341 | 11.3 | 16.1 | 0.13 | 1.24 | 0.46 | 97 | 1014.6 |
| 20260503174022 | 13 | 348 | 9.7 | 16.1 | 0.13 | 1.24 | 0.46 | 100 | 1014.6 |
| 20260503173521 | 13 | 358 | 9.7 | 16.1 | 0.13 | 1.24 | 0.46 | 100 | 1014.7 |
| 20260503173012 | 13 | 7 | 9.7 | 16.1 | 0.15 | 1.24 | 0.46 | 100 | 1014.6 |
| 20260503172512 | 13 | 9 | 9.7 | 16.1 | 0.15 | 1.24 | 0.46 | 100 | 1014.7 |
| 20260503172022 | 14 | 355 | 11.3 | 17.7 | 0.15 | 1.24 | 0.46 | 97 | 1014.5 |
| 20260503171511 | 14 | 346 | 12.9 | 17.7 | 0.18 | 1.24 | 0.43 | 97 | 1014.7 |
| 20260503171012 | 14 | 345 | 9.7 | 14.5 | 0.15 | 1.22 | 0.43 | 97 | 1014.7 |
| 20260503170512 | 14 | 343 | 8.0 | 14.5 | 0.13 | 1.17 | 0.38 | 97 | 1014.9 |
| 20260503150512 | 14 | 349 | 14.5 | 22.5 | 0.15 | 0.94 | 0.15 | 94 | 1016.0 |
| 20260503131012 | 15 | 11 | 3.2 | 6.4 | 0.03 | 0.76 | 0.76 | 98 | 1016.4 |
| 20260503130512 | 15 | 8 | 3.2 | 6.4 | 0.03 | 0.76 | 0.76 | 98 | 1016.4 |
| 20260503110515 | 14 | 4 | 3.2 | 4.8 | 0.03 | 0.74 | 0.74 | 100 | 1016.7 |